Location: Rio de Janeiro
(22.9068°S, 43.1729°W)
Time: 13:24:37
(UTC-03:00)

ISS - Visible Passes

Search period start: 13 May 2025 00:00
Search period end: 23 May 2025 00:00
Orbit: 416 x 420 km, 51.6° (Epoch: 13 May)

Date Brightness Start Highest point End Pass type
(mag) Time Alt. Az. Time Alt. Az. Time Alt. Az.
13 May -2.9 05:24:39 10° NNW 05:27:56 53° NE 05:31:16 10° SE visible
14 May -1.4 04:37:29 11° N 04:40:07 24° NE 04:42:54 10° ESE visible
15 May -2.9 05:26:50 17° W 05:28:48 31° SW 05:31:53 10° SSE visible
16 May -2.2 04:42:28 28° SSE 04:42:28 28° SSE 04:44:13 10° SE visible
